Preston, MN

4:31 AM CDT on May 26, 2018 (GMT -0500)
Preston

Weather History for KFKA - April, 2014

Change the Weather History Date:

Friday, April 18, 2014

  Actual Average (KRST) Record (KRST)
Temperature  
Mean Temperature 40 °F -  
Max Temperature 54 °F 59 °F 89 °F (1985)
Min Temperature 27 °F 37 °F 16 °F (1983)
Degree Days  
Heating Degree Days 24    
Moisture  
Dew Point 28 °F    
Average Humidity 63    
Maximum Humidity 95    
Minimum Humidity 38    
Precipitation  
Precipitation 0.00 in - - ()
Sea Level Pressure  
Sea Level Pressure 30.31 in    
Wind  
Wind Speed 3 mph (ESE)    
Max Wind Speed 12 mph    
Max Gust Speed 17 mph    
Visibility 8 miles    
Events      
Averages and records for this station are not official NWS values.
T = Trace of Precipitation, MM = Missing Value Source: NWS Daily Summary

Daily Weather History Graph

Daily Weather History Graph

Search for Another Location

Airport or City:

Astronomy

Apr. 18, 2014 Rise Set
Actual Time 6:20 AM CDT 7:55 PM CDT
Civil Twilight 5:50 AM CDT 8:26 PM CDT
Nautical Twilight 5:14 AM CDT 9:02 PM CDT
Astronomical Twilight 4:35 AM CDT 9:42 PM CDT
Moon 11:45 PM CDT (4/18) 8:39 AM CDT (4/18)
Length of Visible Light 14h 35m
Length of Day
13h 34m
Waning Gibbous, 87% of the Moon is Illuminated
Apr 18
Waning Gibbous
Apr 22
Last Quarter
Apr 29
New
May 6
First Quarter
May 14
Full

Hourly Weather History & Observations

Time (CDT) Temp. Windchill Dew Point Humidity Pressure Visibility Wind Dir Wind Speed Gust Speed Precip Events Conditions
12:12 AM 32.0 °F - 27.5 °F 83% 30.31 in 7.0 mi Calm Calm - N/A   Clear
12:32 AM 32.0 °F - 27.5 °F 83% 30.32 in 7.0 mi Calm Calm - N/A   Clear
12:52 AM 32.0 °F - 27.7 °F 84% 30.31 in 7.0 mi Calm Calm - N/A   Clear
1:12 AM 31.6 °F - 27.5 °F 85% 30.31 in 7.0 mi Calm Calm - N/A   Clear
1:32 AM 31.5 °F - 27.3 °F 85% 30.31 in 7.0 mi Calm Calm - N/A   Clear
1:52 AM 30.2 °F - 26.8 °F 87% 30.31 in 7.0 mi Calm Calm - N/A   Clear
2:12 AM 31.5 °F - 27.5 °F 85% 30.31 in 7.0 mi Calm Calm - N/A   Clear
2:32 AM 30.7 °F - 27.3 °F 87% 30.31 in 7.0 mi Calm Calm - N/A   Clear
2:52 AM 30.4 °F - 26.6 °F 86% 30.31 in 7.0 mi Calm Calm - N/A   Clear
3:13 AM 28.4 °F 24.6 °F 26.1 °F 91% 30.31 in 5.0 mi NW 3.5 mph - N/A   Clear
3:32 AM 28.4 °F 24.6 °F 26.6 °F 93% 30.32 in 4.0 mi NW 3.5 mph - N/A   Clear
3:52 AM 28.9 °F - 27.0 °F 92% 30.32 in 5.0 mi Calm Calm - N/A   Clear
4:12 AM 29.7 °F 26.1 °F 27.3 °F 91% 30.32 in 5.0 mi NW 3.5 mph - N/A   Clear
4:32 AM 28.8 °F - 26.6 °F 92% 30.32 in 4.0 mi Calm Calm - N/A   Clear
4:52 AM 28.8 °F - 26.6 °F 92% 30.33 in 4.0 mi Calm Calm - N/A   Clear
5:12 AM 29.1 °F - 27.0 °F 92% 30.33 in 5.0 mi Calm Calm - N/A   Clear
5:32 AM 29.1 °F - 26.6 °F 90% 30.33 in 5.0 mi Calm Calm - N/A   Clear
5:52 AM 29.7 °F - 27.1 °F 90% 30.33 in 5.0 mi Calm Calm - N/A   Clear
6:12 AM 28.2 °F 24.4 °F 25.7 °F 90% 30.32 in 4.0 mi East 3.5 mph - N/A   Scattered Clouds
6:32 AM 29.7 °F - 27.3 °F 91% 30.34 in 4.0 mi Calm Calm - N/A   Mostly Cloudy
6:52 AM 27.9 °F - 25.9 °F 92% 30.34 in 1.8 mi Calm Calm - N/A   Overcast
7:12 AM 28.2 °F 24.4 °F 27.0 °F 95% 30.35 in 2.0 mi East 3.5 mph - N/A   Overcast
7:32 AM 30.2 °F 26.7 °F 28.2 °F 92% 30.35 in 3.0 mi East 3.5 mph - N/A   Overcast
7:52 AM 31.6 °F - 29.1 °F 90% 30.36 in 4.0 mi Calm Calm - N/A   Overcast
8:12 AM 32.0 °F - 29.7 °F 91% 30.36 in 5.0 mi Calm Calm - N/A   Overcast
8:32 AM 33.6 °F 28.4 °F 29.3 °F 84% 30.36 in 7.0 mi East 5.8 mph - N/A   Overcast
8:52 AM 33.8 °F 29.6 °F 29.8 °F 85% 30.36 in 7.0 mi NE 4.6 mph - N/A   Overcast
9:12 AM 34.3 °F 30.2 °F 28.6 °F 79% 30.36 in 10.0 mi ENE 4.6 mph - N/A   Overcast
9:52 AM 37.4 °F 32.8 °F 27.3 °F 67% 30.37 in 10.0 mi East 5.8 mph - N/A   Clear
10:12 AM 38.8 °F 35.4 °F 27.5 °F 64% 30.37 in 10.0 mi ESE 4.6 mph - N/A   Clear
10:32 AM 39.7 °F 34.9 °F 27.3 °F 61% 30.36 in 10.0 mi East 6.9 mph - N/A   Clear
10:52 AM 40.8 °F 36.2 °F 28.2 °F 61% 30.36 in 10.0 mi East 6.9 mph - N/A   Clear
11:12 AM 42.1 °F 36.1 °F 26.6 °F 54% 30.36 in 10.0 mi ESE 10.4 mph - N/A   Clear
11:32 AM 43.5 °F 38.9 °F 26.4 °F 51% 30.36 in 10.0 mi ESE 8.1 mph - N/A   Clear
11:52 AM 45.1 °F 40.3 °F 23.7 °F 43% 30.35 in 10.0 mi ESE 9.2 mph - N/A   Clear
12:12 PM 45.5 °F 41.8 °F 25.9 °F 46% 30.35 in 10.0 mi ESE 6.9 mph - N/A   Clear
12:32 PM 46.8 °F - 27.0 °F 46% 30.35 in 10.0 mi South 8.1 mph - N/A   Clear
12:52 PM 47.3 °F - 26.6 °F 45% 30.36 in 10.0 mi SSE 6.9 mph - N/A   Clear
1:12 PM 48.2 °F - 26.4 °F 43% 30.35 in 10.0 mi South 6.9 mph - N/A   Clear
1:32 PM 49.3 °F - 25.3 °F 39% 30.34 in 10.0 mi SSE 3.5 mph - N/A   Clear
1:52 PM 49.6 °F - 25.5 °F 39% 30.34 in 10.0 mi ENE 4.6 mph - N/A   Clear
2:12 PM 50.0 °F - 25.3 °F 38% 30.34 in 10.0 mi East 4.6 mph - N/A   Clear
2:32 PM 50.9 °F - 26.8 °F 39% 30.33 in 10.0 mi ENE 4.6 mph - N/A   Clear
2:52 PM 51.8 °F - 27.5 °F 39% 30.33 in 10.0 mi East 8.1 mph - N/A   Clear
3:12 PM 52.2 °F - 28.2 °F 40% 30.32 in 10.0 mi SE 4.6 mph - N/A   Clear
3:32 PM 52.7 °F - 29.1 °F 40% 30.31 in 10.0 mi ESE 10.4 mph - N/A   Clear
4:12 PM 54.1 °F - 29.1 °F 38% 30.29 in 10.0 mi ESE 10.4 mph - N/A   Scattered Clouds
4:32 PM 54.5 °F - 28.9 °F 38% 30.28 in 10.0 mi East 8.1 mph - N/A   Clear
4:52 PM 54.5 °F - 29.1 °F 38% 30.28 in 10.0 mi East 8.1 mph - N/A   Clear
5:12 PM 54.7 °F - 29.3 °F 38% 30.27 in 10.0 mi ESE 9.2 mph - N/A   Clear
5:32 PM 54.9 °F - 29.8 °F 38% 30.27 in 10.0 mi SE 9.2 mph - N/A   Clear
5:52 PM 54.7 °F - 29.5 °F 38% 30.27 in 10.0 mi ESE 9.2 mph - N/A   Clear
6:12 PM 54.0 °F - 29.1 °F 39% 30.26 in 10.0 mi ESE 10.4 mph - N/A   Clear
6:32 PM 54.1 °F - 28.9 °F 38% 30.26 in 10.0 mi SE 10.4 mph 17.3 mph N/A   Clear
6:52 PM 53.6 °F - 29.5 °F 40% 30.26 in 10.0 mi ESE 9.2 mph - N/A   Clear
7:12 PM 53.1 °F - 29.1 °F 40% 30.25 in 10.0 mi ESE 11.5 mph - N/A   Clear
7:32 PM 52.2 °F - 28.4 °F 40% 30.25 in 10.0 mi ESE 10.4 mph 17.3 mph N/A   Clear
7:52 PM 50.5 °F - 28.6 °F 43% 30.25 in 10.0 mi ESE 8.1 mph - N/A   Clear
8:12 PM 49.3 °F - 29.1 °F 46% 30.25 in 10.0 mi ESE 8.1 mph - N/A   Clear
8:32 PM 48.7 °F - 29.3 °F 47% 30.25 in 10.0 mi ESE 8.1 mph - N/A   Clear
8:52 PM 48.2 °F - 29.3 °F 48% 30.24 in 10.0 mi ESE 8.1 mph - N/A   Clear
9:12 PM 47.3 °F - 29.5 °F 50% 30.23 in 10.0 mi ESE 8.1 mph - N/A   Clear
9:32 PM 46.4 °F 42.4 °F 29.7 °F 52% 30.23 in 10.0 mi ESE 8.1 mph - N/A   Clear
10:12 PM 45.9 °F 42.3 °F 29.7 °F 53% 30.24 in 10.0 mi SE 6.9 mph - N/A   Clear
10:33 PM 45.0 °F 41.2 °F 29.5 °F 55% 30.24 in 10.0 mi SE 6.9 mph - N/A   Clear
10:52 PM 45.1 °F 40.3 °F 29.5 °F 54% 30.22 in 10.0 mi SE 9.2 mph - N/A   Clear
11:12 PM 45.0 °F 40.1 °F 29.3 °F 54% 30.22 in 10.0 mi SE 9.2 mph - N/A   Clear
11:32 PM 44.8 °F 39.9 °F 29.3 °F 55% 30.22 in 10.0 mi SE 9.2 mph - N/A   Clear
11:52 PM 45.0 °F 41.2 °F 29.1 °F 54% 30.23 in 10.0 mi SE 6.9 mph - N/A   Clear